Regional Weather Roundup
Issued by NWS

Home | Current Version | Previous Version | Text Only | Print | Product List | Glossary Off
Versions: 1 2 3 4 5 6 7 8 9 10 11 12 13 14 15 16 17 18 19 20 21 22 23 24 25 26 27 28 29 30 31 32 33 34 35 36 37 38 39 40 41 42 43 44 45 46 47 48 49 50

000
ASUS43 KMPX 240010
RWRMN
WEATHER ROUNDUP FOR MINNESOTA
NATIONAL WEATHER SERVICE TWIN CITIES/CHANHASSEN MN
700 PM CDT MON APR 23 2018


NOTE: "FAIR" INDICATES FEW OR NO CLOUDS BELOW 12,000 FEET WITH NO
SIGNIFICANT WEATHER AND/OR OBSTRUCTIONS TO VISIBILITY. N/A MEANS
CURRENT SKY AND/OR WEATHER CONDITIONS ARE NOT AVAILABLE.

MNZ060>063-068>070-240100-
   Twin Cities Metro

CITY           SKY/WX    TMP DP  RH WIND       PRES   REMARKS
TWIN CITIES    FAIR      69  37  30 CALM      30.12S
6HR MIN TEMP:  65; 6HR MAX TEMP:  71;

ST PAUL        FAIR      69  33  26 CALM      30.12S
CRYSTAL        FAIR      67  35  30 CALM      30.11F
BLAINE         MOSUNNY   68  36  30 W5        30.12S
LAKEVILLE      FAIR      64  39  39 W5        30.12F
EDEN PRAIRIE   FAIR      67  39  35 NW5       30.11F
6HR MIN TEMP:  64; 6HR MAX TEMP:  69;

SOUTH ST PAUL  FAIR      68  35  29 CALM      30.11S
LAKE ELMO      FAIR      68  36  30 CALM      30.12F
$$
MNZ001>005-007-008-013>017-022>024-027-028-240100-
   Northwest Minnesota

CITY           SKY/WX    TMP DP  RH WIND       PRES   REMARKS
BEMIDJI        FAIR      62  32  31 NW8       30.12F
HALLOCK        FAIR      61  30  31 N12       30.16R
ROSEAU         FAIR      57  36  44 NW7       30.14S
WARROAD        FAIR      57  30  35 NW8       30.14S
THIEF RVR FALL FAIR      59  33  37 NW13      30.16S
CROOKSTON      FAIR      57  41  54 N9        30.17S
FOSSTON        FAIR      61  34  36 NW9       30.16S
DETROIT LAKES  FAIR      63  36  36 N9        30.14F
MOORHEAD       FAIR      63  37  39 N12       30.15S
PARK RAPIDS    FAIR      67  33  28 NW9       30.11S
MAHNOMEN       FAIR      61  36  39 N12       30.14S
$$
MNZ006-009>011-018-025>026-240100-
   North Central Minnesota

CITY           SKY/WX    TMP DP  RH WIND       PRES   REMARKS
BAUDETTE       FAIR      58  29  33 NW12      30.12F
FLAG ISLAND    FAIR      46  28  49 S3        30.12R
INTL FALLS     FAIR      60  32  34 NW14      30.11S
6HR MIN TEMP:  60; 6HR MAX TEMP:  65;

WASKISH        FAIR      52  34  50 W7        30.13R
BIG FORK       FAIR      64  27  24 NW5       30.11S
LONGVILLE      FAIR      64  30  27 N3        30.11S
GRAND RAPIDS   FAIR      63  33  32 N10       30.12S
CRANE LAKE     FAIR      59  27  29 N6        30.12R
ORR            FAIR      63  27  25 N5        30.07S
COOK           FAIR      64  30  27 W12       30.10S
WALKER         FAIR      63  32  31 NW9       30.11S
$$
MNZ012-019>021-037-240100-
   Northeast Minnesota

CITY           SKY/WX    TMP DP  RH WIND       PRES   REMARKS
DULUTH         PTSUNNY   63  39  41 W9        30.10S
6HR MIN TEMP:  63; 6HR MAX TEMP:  68;

ELY            FAIR      64  27  24 NW6G16    30.08F
HIBBING        FAIR      62  31  31 NW12      30.09F
EVELETH        FAIR      64  30  27 W9        30.11S
DULUTH HARBOR  FAIR      63  37  39 SW7       30.10S
TWO HARBORS    CLOUDY    66  43  42 S7        30.08S
SILVER BAY     MOCLDY    61  36  39 S6        30.07S
GRAND MARAIS     N/A     42  33  70 CALM      30.09F
G MARAIS ARPRT FAIR      55  30  38 CALM      30.10F
$$
MNZ029>031-032-039>041-046>048-054>057-064-240100-
   West Central Minnesota

CITY           SKY/WX    TMP DP  RH WIND       PRES   REMARKS
FERGUS FALLS   FAIR      66  41  39 N7        30.08F
WHEATON        PTSUNNY   66  39  37 NE8       30.13S
MORRIS         SUNNY     66  43  42 CALM      30.11S
ALEXANDRIA     FAIR      65  36  34 NW3       30.13S
ELBOW LAKE     FAIR      63  40  43 NW3       30.13S
WADENA         FAIR      64  41  42 NW6       30.11F
GLENWOOD       FAIR      66  36  32 CALM      30.13S
APPLETON       SUNNY     68  36  30 CALM      30.11S
BENSON         MOSUNNY   66  37  34 CALM      30.13S
ORTONVILLE     SUNNY     66  45  45 SE5       30.11S
MADISON        SUNNY     68  45  42 S6        30.12S
WILLMAR        FAIR      64  39  39 SW3       30.15S
$$
MNZ033>034-036-042>043-049>051-058-059-240100-
   Central Minnesota

CITY           SKY/WX    TMP DP  RH WIND       PRES   REMARKS
ST CLOUD       FAIR      67  37  33 N5        30.11F
6HR MIN TEMP:  64; 6HR MAX TEMP:  70;

SAUK CENTRE    FAIR      65  36  33 CALM      30.12S
PAYNESVILLE    FAIR      66  37  33 CALM      30.12F
AITKIN         PTSUNNY   61  36  39 CALM      30.10R
PINE RIVER     PTSUNNY   63  36  36 N6        30.14R
BRAINERD       PTSUNNY   68  35  29 NW5       30.11S
STAPLES        FAIR      64  36  34 NW6       30.11F
LONG PRAIRIE   FAIR      63  37  39 CALM      30.12F
LITTLE FALLS   FAIR      64  27  24 W5        30.12S
LITCHFIELD     FAIR      66  37  34 CALM      30.13S
BUFFALO        FAIR      66  37  34 CALM      30.13S
MAPLE LAKE     FAIR      67  40  37 CALM      30.13F
HUTCHINSON     FAIR      66  44  45 CALM      30.14S
$$
MNZ037-044-045-052-053-240100-
   East Central Minnesota

CITY           SKY/WX    TMP DP  RH WIND       PRES   REMARKS
PRINCETON      FAIR      66  37  34 N6        30.13S
MORA           FAIR      64  37  36 W3        30.14S
CAMBRIDGE      FAIR      68  45  42 N5        30.13S
RUSH CITY      FAIR      65  38  37 CALM      30.13S
MOOSE LAKE     FAIR      66  37  34 S3        30.09S
HINCKLEY       FAIR      64  37  36 NW5       30.12S
CLOQUET        CLOUDY    64  30  27 CALM      30.11S
MCGREGOR       CLOUDY    61  37  41 S5        30.11S
$$
MNZ071>073-080-081-089-090-097-098-240100-
   Southwest Minnesota

CITY           SKY/WX    TMP DP  RH WIND       PRES   REMARKS
MONTEVIDEO     SUNNY     68  37  32 CALM      30.12F
GRANITE FALLS  SUNNY     67  40  36 CALM      30.14S
CANBY          SUNNY     66  42  40 E7        30.13S
MARSHALL       SUNNY     65  37  35 S6        30.13F
REDWOOD FALLS  SUNNY     65  38  36 S6        30.12F
OLIVIA         SUNNY     68  37  32 CALM      30.12F
PIPESTONE      SUNNY    N/A N/A N/A E8        30.13S
WINDOM         SUNNY     63  36  36 CALM      30.14S
WORTHINGTON    SUNNY     62  43  49 E6        30.14F
JACKSON        SUNNY     59  41  51 SE7       30.15S
TRACY          SUNNY     64  40  41 CALM      30.13S
SLAYTON        SUNNY     61  43  51 E6        30.14F
$$
MNZ065>067-074>077-082>085-091>093-240100-
   South Central Minnesota

CITY           SKY/WX    TMP DP  RH WIND       PRES   REMARKS
MANKATO        FAIR      65  41  41 NW5       30.13F
NEW ULM        SUNNY     64  37  36 CALM      30.13S
ST JAMES       SUNNY     63  41  45 CALM      30.15S
FAIRMONT       SUNNY     61  46  57 N5        30.14F
GLENCOE        FAIR      66  42  41 CALM      30.12F
OWATONNA       FAIR      64  37  36 CALM      30.13S
WASECA         FAIR      63  37  39 NW3       30.14S
ALBERT LEA     FAIR      64  36  34 NE3       30.13S
$$
MNZ078>079-086>088-094>096-240100-
   Southeast Minnesota

CITY           SKY/WX    TMP DP  RH WIND       PRES   REMARKS
ROCHESTER      FAIR      63  35  35 NE7       30.12F
6HR MIN TEMP:  62; 6HR MAX TEMP:  67;

RED WING       FAIR      70  23  17 CALM      30.11S
STANTON        FAIR      67  37  32 CALM      30.11F
DODGE CENTER   FAIR      64  36  34 CALM      30.13S
WINONA         FAIR      70  30  23 CALM      30.09S
AUSTIN         FAIR      64  37  36 CALM      30.12S
PRESTON        FAIR      64  29  26 NE6       30.12F
$$
ABBREVIATIONS USED IN REMARKS
   TC - TEMPERATURES IN CELSIUS
  WCI - WIND CHILL INDEX
   HX - HEAT INDEX
  VSB - VISIBILITY
$$



USA.gov is the U.S. government's official web portal to all federal, state and local government web resources and services.